Preview of NWS' New Version of Forecast
This preview is not operational and should not be used for support decisions.

Regional Weather Roundup (RWR)

Issued by National Weather Service (NWS)

                            
000
ASUS46 KPQR 211110
RWROR 

OREGON REGIONAL WEATHER ROUNDUP
NATIONAL WEATHER SERVICE PORTLAND OR
400 AM PDT SUN APR 21 2019

NOTE: "FAIR" INDICATES FEW OR NO CLOUDS BELOW 12,000 FEET WITH
NO SIGNIFICANT WEATHER AND/OR OBSTRUCTIONS TO VISIBILITY.

ORZ001>013-211200-
NORTHWEST OREGON

  
CITY           SKY/WX    TMP DP  RH WIND       PRES   REMARKS
ASTORIA        CLOUDY    49  41  74 W6        30.26R                  
TILLAMOOK      CLOUDY    48  46  93 CALM      30.29R                  
NEWPORT        CLOUDY    48  43  81 NW7       30.30S                  
PORTLAND       MOCLDY    46  41  82 CALM      30.27R                  
VANCOUVER WA   MOCLDY    43  40  89 CALM      30.26R                  
SCAPPOOSE      CLEAR     44  40  85 CALM      30.26R                  
HILLSBORO      CLEAR     42  40  92 CALM      30.26R                  
AURORA         CLOUDY    49  45  86 CALM      30.27R                  
MCMINNVILLE    CLOUDY    45  43  93 CALM      30.26R                  
SALEM          MOCLDY    48  41  76 CALM      30.26R                  
CORVALLIS      CLOUDY    46  44  93 SW3       30.28R                  
EUGENE         CLOUDY    48  43  82 SW5       30.27R                  
$$

ORZ021-028-211200-
SOUTHWEST OREGON

  
CITY           SKY/WX    TMP DP  RH WIND       PRES   REMARKS
NORTH BEND     CLOUDY    49  45  86 CALM      30.31R                  
BROOKINGS      CLEAR     44  39  82 CALM      30.22R                  
ROSEBURG       CLOUDY    49  42  77 CALM      30.26R                  
SEXTON SUMMIT  SNOW      35  35 100 N8        30.17R VSB 1/4          
GRANTS PASS    LGT RAIN  39  37  93 CALM      30.26R                  
MEDFORD        CLOUDY    45  40  82 CALM      30.22R                  
$$

ORZ014>016-041-211200-
COLUMBIA GORGE

  
CITY           SKY/WX    TMP DP  RH WIND       PRES   REMARKS
TROUTDALE      CLOUDY    50  43  77 CALM      30.26R                  
HOOD RIVER     CLEAR     46  41  81 MISG      30.19R                  
THE DALLES     CLEAR     51  42  71 NW16      30.15R                  
$$

ORZ029>031-041-044-049-050-061>064-502-503-505>511-211200-
EASTERN OREGON

  
CITY           SKY/WX    TMP DP  RH WIND       PRES   REMARKS
MADRAS         CLEAR     34  32  93 SE6       30.18R                  
REDMOND        CLEAR     35  31  85 S5        30.15R                  
BEND           CLEAR     36  32  87 CALM      30.16R                  
PRINEVILLE     CLEAR     34  32  93 CALM      30.16R                  
KLAMATH FALLS  CLEAR     33  30  88 NE5       30.14R                  
LAKEVIEW       PTCLDY    38  34  85 N16       30.10R WCI  29          
HERMISTON      CLEAR     49  40  71 SW12      30.10R                  
PENDLETON      CLEAR     46  37  71 SW6       30.10R                  
JOHN DAY       CLOUDY    42  40  91 W5        30.10R                  
MEACHAM        CLEAR     32  29  88 CALM      30.09R                  
LA GRANDE      CLEAR     45  38  76 W16G23    30.07R                  
BAKER CITY     PTCLDY    44  37  76 NW17      30.03R                  
BURNS          CLEAR     38  33  82 W9        30.06R                  
ROME             N/A     45  36  70 NW7       30.01R                  
ONTARIO        CLOUDY    54  40  59 NW20      29.97R                  
$$